{"data":{"norad_id":68554,"epoch":"2026-09-19T22:46:37.132032Z","epoch_age_seconds":92206,"freshness":"FRESH","line1":"1 68554U 26070N   26262.94904088  .00017206  00000+0  51926-3 0  9994","line2":"2 68554  53.1597 176.2341 0001620  81.9255 278.1931 15.34396937 26350","mean_motion":15.34396937,"eccentricity":0.000162,"inclination_deg":53.1597,"raan_deg":176.2341,"arg_perigee_deg":81.9255,"mean_anomaly_deg":278.1931,"bstar":0.00051926,"rev_number":2635,"period_min":93.847945422482,"perigee_km":461.60412651,"apogee_km":463.82056169749,"semimajor_km":6840.8493441037,"source":"CELESTRAK","updated_at":"2026-09-20T09:00:43.934903Z"}}